Weather History for Muscatine, IA

Change the Weather History Date:

Wednesday, January 16, 2013

  Actual Average Record
Temperature  
Mean Temperature 27 °F -  
Max Temperature 42 °F 32 °F 57 °F (1990)
Min Temperature 12 °F 12 °F -23 °F (2009)
Degree Days  
Heating Degree Days 38    
Moisture  
Dew Point 20 °F    
Average Humidity 64    
Maximum Humidity 81    
Minimum Humidity 45    
Precipitation  
Precipitation 0.00 in - - ()
Sea Level Pressure  
Sea Level Pressure 29.99 in    
Wind  
Wind Speed 7 mph (SW)    
Max Wind Speed 17 mph    
Max Gust Speed 22 mph    
Visibility 10 miles    
Events      
Averages and records for this station are not official NWS values.
T = Trace of Precipitation, MM = Missing Value Source: NWS Daily Summary

Daily Weather History Graph

Daily Weather History Graph

Search for Another Location

Airport:

Trip Planner

Search our weather history database for the weather conditions in past years. The results will help you decide how hot, cold, wet, or windy it might be!

Date:

Astronomy

Jan. 16, 2013 Rise Set
Actual Time 7:27 AM CST 5:01 PM CST
Civil Twilight 6:57 AM CST 5:31 PM CST
Nautical Twilight 6:23 AM CST 6:06 PM CST
Astronomical Twilight 5:50 AM CST 6:39 PM CST
Moon 10:00 AM CST (1/16) 10:58 PM CST (1/16)
Length of Visible Light 10h 34m
Length of Day
9h 33m
Waxing Crescent, 28% of the Moon is Illuminated
Jan 16
Waxing Crescent
Jan 18
First Quarter
Jan 26
Full
Feb 3
Last Quarter
Feb 10
New

Hourly Weather History & Observations

Time (CST) Temp. Windchill Dew Point Humidity Pressure Visibility Wind Dir Wind Speed Gust Speed Precip Events Conditions
12:15 AM 12.2 °F - 3.2 °F 67% 30.13 in 10.0 mi Calm Calm - N/A   Clear
12:35 AM 12.2 °F 6.1 °F 6.8 °F 79% 30.12 in 10.0 mi SSW 3.5 mph - N/A   Clear
12:55 AM 17.6 °F 6.4 °F 8.6 °F 68% 30.11 in 10.0 mi South 9.2 mph - N/A   Clear
1:15 AM 17.6 °F 8.2 °F 6.8 °F 63% 30.10 in 10.0 mi South 6.9 mph - N/A   Clear
1:35 AM 15.8 °F 6.1 °F 6.8 °F 68% 30.10 in 10.0 mi SSW 6.9 mph - N/A   Clear
1:55 AM 15.8 °F 5.1 °F 6.8 °F 68% 30.10 in 10.0 mi South 8.1 mph - N/A   Clear
2:35 AM 17.6 °F 6.4 °F 6.8 °F 63% 30.09 in 10.0 mi South 9.2 mph - N/A   Clear
2:55 AM 17.6 °F 7.3 °F 8.6 °F 68% 30.08 in 10.0 mi South 8.1 mph - N/A   Clear
3:15 AM 17.6 °F 6.4 °F 8.6 °F 68% 30.07 in 10.0 mi South 9.2 mph - N/A   Clear
3:35 AM 17.6 °F 7.3 °F 8.6 °F 68% 30.06 in 10.0 mi South 8.1 mph - N/A   Clear
3:55 AM 15.8 °F 6.1 °F 6.8 °F 68% 30.06 in 10.0 mi South 6.9 mph - N/A   Clear
4:15 AM 17.6 °F 8.2 °F 8.6 °F 68% 30.04 in 10.0 mi South 6.9 mph - N/A   Clear
4:35 AM 17.6 °F 9.3 °F 8.6 °F 68% 30.04 in 10.0 mi South 5.8 mph - N/A   Clear
4:55 AM 17.6 °F 10.7 °F 6.8 °F 63% 30.02 in 10.0 mi South 4.6 mph - N/A   Clear
5:15 AM 19.4 °F 11.5 °F 8.6 °F 63% 30.01 in 10.0 mi SSW 5.8 mph - N/A   Clear
5:35 AM 19.4 °F 10.4 °F 8.6 °F 63% 30.01 in 10.0 mi SSW 6.9 mph - N/A   Clear
6:35 AM 19.4 °F 8.6 °F 8.6 °F 63% 29.97 in 10.0 mi SSW 9.2 mph - N/A   Clear
6:55 AM 17.6 °F 7.3 °F 8.6 °F 68% 29.98 in 10.0 mi SSW 8.1 mph - N/A   Clear
7:15 AM 17.6 °F 7.3 °F 8.6 °F 68% 29.98 in 10.0 mi SSW 8.1 mph - N/A   Clear
7:35 AM 17.6 °F 7.3 °F 8.6 °F 68% 29.98 in 10.0 mi South 8.1 mph - N/A   Clear
7:55 AM 19.4 °F 9.5 °F 10.4 °F 68% 29.98 in 10.0 mi SSW 8.1 mph - N/A   Clear
8:15 AM 19.4 °F 9.5 °F 10.4 °F 68% 29.98 in 10.0 mi South 8.1 mph - N/A   Clear
8:35 AM 21.2 °F 11.7 °F 12.2 °F 68% 29.97 in 10.0 mi SSW 8.1 mph - N/A   Clear
8:55 AM 24.8 °F 14.0 °F 12.2 °F 59% 29.97 in 10.0 mi SW 11.5 mph - N/A   Clear
9:15 AM 26.6 °F 16.8 °F 14.0 °F 59% 29.96 in 10.0 mi SW 10.4 mph - N/A   Clear
9:35 AM 28.4 °F 17.5 °F 15.8 °F 59% 29.95 in 10.0 mi SW 13.8 mph - N/A   Clear
9:55 AM 30.2 °F 20.8 °F 15.8 °F 55% 29.94 in 10.0 mi SW 11.5 mph 19.6 mph N/A   Scattered Clouds
10:15 AM 32.0 °F 21.6 °F 17.6 °F 55% 29.94 in 10.0 mi SW 15.0 mph 18.4 mph N/A   Mostly Cloudy
10:35 AM 33.8 °F 25.8 °F 17.6 °F 52% 29.93 in 10.0 mi SW 10.4 mph - N/A   Mostly Cloudy
10:55 AM 33.8 °F 23.9 °F 17.6 °F 52% 29.92 in 10.0 mi SW 15.0 mph 18.4 mph N/A   Overcast
11:15 AM 35.6 °F 27.1 °F 19.4 °F 52% 29.92 in 10.0 mi SW 12.7 mph - N/A   Overcast
11:35 AM 35.6 °F 27.1 °F 19.4 °F 52% 29.91 in 10.0 mi SW 12.7 mph - N/A   Overcast
11:55 AM 39.2 °F 31.2 °F 19.4 °F 45% 29.90 in 10.0 mi SW 13.8 mph 20.7 mph N/A   Overcast
12:15 PM 39.2 °F 31.2 °F 19.4 °F 45% 29.88 in 10.0 mi SW 13.8 mph 19.6 mph N/A   Mostly Cloudy
12:35 PM 39.2 °F 30.5 °F 21.2 °F 49% 29.88 in 10.0 mi SW 16.1 mph 21.9 mph N/A   Scattered Clouds
12:55 PM 41.0 °F 33.5 °F 21.2 °F 45% 29.88 in 10.0 mi SW 13.8 mph - N/A   Scattered Clouds
1:15 PM 41.0 °F 33.9 °F 23.0 °F 49% 29.88 in 10.0 mi WSW 12.7 mph - N/A   Overcast
1:35 PM 41.0 °F 33.9 °F 24.8 °F 53% 29.88 in 10.0 mi West 12.7 mph - N/A   Overcast
2:15 PM 41.0 °F 34.3 °F 24.8 °F 53% 29.88 in 10.0 mi WSW 11.5 mph - N/A   Overcast
2:35 PM 42.8 °F 36.6 °F 26.6 °F 53% 29.90 in 10.0 mi WSW 11.5 mph - N/A   Overcast
2:55 PM 42.8 °F 35.8 °F 26.6 °F 53% 29.91 in 10.0 mi WSW 13.8 mph 18.4 mph N/A   Overcast
3:15 PM 42.8 °F 36.6 °F 26.6 °F 53% 29.91 in 10.0 mi WSW 11.5 mph - N/A   Overcast
3:35 PM 41.0 °F 34.3 °F 26.6 °F 57% 29.93 in 10.0 mi West 11.5 mph - N/A   Overcast
3:55 PM 41.0 °F 36.4 °F 28.4 °F 61% 29.93 in 10.0 mi West 6.9 mph - N/A   Overcast
4:15 PM 42.8 °F 39.3 °F 28.4 °F 57% 29.94 in 10.0 mi WSW 5.8 mph - N/A   Mostly Cloudy
4:35 PM 39.2 °F 35.9 °F 28.4 °F 65% 29.95 in 10.0 mi SW 4.6 mph - N/A   Scattered Clouds
4:55 PM 39.2 °F 37.0 °F 28.4 °F 65% 29.96 in 10.0 mi SSW 3.5 mph - N/A   Mostly Cloudy
5:15 PM 37.4 °F 33.8 °F 28.4 °F 70% 29.95 in 10.0 mi SSW 4.6 mph - N/A   Overcast
5:55 PM 37.4 °F 34.9 °F 28.4 °F 70% 29.97 in 10.0 mi SSW 3.5 mph - N/A   Overcast
6:15 PM 37.4 °F 34.9 °F 30.2 °F 75% 29.97 in 10.0 mi SSW 3.5 mph - N/A   Overcast
6:35 PM 37.4 °F - 28.4 °F 70% 29.99 in 10.0 mi Calm Calm - N/A   Overcast
6:55 PM 37.4 °F - 30.2 °F 75% 29.99 in 10.0 mi Calm Calm - N/A   Overcast
7:15 PM 37.4 °F 34.9 °F 30.2 °F 75% 30.00 in 10.0 mi SSE 3.5 mph - N/A   Overcast
7:35 PM 37.4 °F 34.9 °F 30.2 °F 75% 30.01 in 10.0 mi South 3.5 mph - N/A   Overcast
7:55 PM 39.2 °F 37.0 °F 30.2 °F 70% 30.01 in 10.0 mi SW 3.5 mph - N/A   Overcast
8:15 PM 39.2 °F - 30.2 °F 70% 30.01 in 10.0 mi Calm Calm - N/A   Overcast
8:35 PM 39.2 °F - 30.2 °F 70% 30.02 in 10.0 mi Calm Calm - N/A   Overcast
8:55 PM 39.2 °F 35.0 °F 30.2 °F 70% 30.03 in 10.0 mi WSW 5.8 mph - N/A   Overcast
9:15 PM 39.2 °F 35.0 °F 30.2 °F 70% 30.04 in 10.0 mi West 5.8 mph - N/A   Overcast
9:35 PM 37.4 °F - 30.2 °F 75% 30.05 in 10.0 mi Calm Calm - N/A   Overcast
9:55 PM 39.2 °F 33.6 °F 32.0 °F 75% 30.05 in 10.0 mi NW 8.1 mph - N/A   Overcast
10:15 PM 39.2 °F 34.2 °F 32.0 °F 75% 30.06 in 10.0 mi NW 6.9 mph - N/A   Overcast
10:35 PM 39.2 °F 34.2 °F 33.8 °F 81% 30.06 in 10.0 mi NW 6.9 mph - N/A   Overcast
10:55 PM 39.2 °F 34.2 °F 33.8 °F 81% 30.07 in 10.0 mi NW 6.9 mph - N/A   Overcast
11:15 PM 39.2 °F 33.6 °F 33.8 °F 81% 30.09 in 10.0 mi NNW 8.1 mph - N/A   Overcast
11:35 PM 39.2 °F 32.0 °F 32.0 °F 75% 30.11 in 10.0 mi North 11.5 mph - N/A   Overcast
11:55 PM 37.4 °F 27.8 °F 30.2 °F 75% 30.12 in 10.0 mi NNW 17.3 mph - N/A   Overcast